GFSSE_850_dewp_276.txt.gz
Dewpoint
12 12 11 12 13 12 12 12 13 14 15 15 12 12 11 12 14 15 15 15 15 15 15 14 13 12 14 14 12 14 14 13 12 10 8 8 12 12 10 8 8 9 10
10 11 11 13 10 10 12 13 13 14 14 15 14 14 11 12 13 15 15 15 15 15 14 13 13 12 13 13 13 13 12 11 10 10 10 12 12 9 9 9 9 9 10
8 12 13 12 11 10 10 12 13 14 14 15 14 14 10 11 13 12 14 15 15 14 14 14 14 14 13 12 11 11 10 10 10 11 12 9 10 8 8 9 9 9 9
8 10 10 10 9 11 12 11 14 14 14 14 14 13 14 11 13 13 11 12 14 14 14 13 11 7 9 12 10 9 9 9 9 8 7 7 7 8 8 9 10 10 10
9 8 10 11 12 11 10 11 12 14 14 14 13 13 13 14 12 13 14 10 9 11 13 13 9 12 13 13 13 14 13 13 13 9 6 6 7 8 7 7 9 9 10
6 5 8 9 9 10 12 12 12 14 13 13 12 12 13 15 15 12 10 10 10 11 13 9 7 11 12 12 13 14 14 14 12 12 9 7 9 7 7 7 8 8 9
6 7 8 9 9 10 12 12 12 12 14 12 11 12 10 10 10 10 10 9 9 9 10 10 10 12 12 11 12 12 13 13 13 12 9 9 7 6 8 8 6 7 8
7 8 6 6 10 8 8 10 13 11 12 12 11 11 12 11 12 9 10 10 10 9 7 7 9 13 12 13 13 13 13 13 13 12 9 7 6 5 7 8 8 7 8
7 7 9 8 7 10 9 9 9 12 11 11 10 12 10 8 12 10 10 8 7 5 5 5 7 13 13 14 14 14 14 14 14 14 11 5 4 4 6 8 8 7 8
7 6 6 8 10 9 9 8 7 8 10 11 9 9 10 7 7 6 9 8 9 6 6 5 4 4 5 11 13 13 13 14 14 15 13 6 1 1 4 5 7 7 7
12 10 12 7 6 7 10 8 8 5 6 8 7 7 8 10 10 10 10 9 10 9 7 8 9 10 6 6 10 12 13 14 15 14 14 13 -0 -0 -1 -1 5 5 6
13 13 12 12 10 6 7 10 8 9 7 7 12 12 11 11 10 10 8 7 9 9 8 7 9 10 9 10 13 13 13 13 13 13 13 14 6 -0 -1 -1 -2 3 5
13 14 13 13 13 13 8 13 14 15 12 15 15 15 15 12 14 13 12 6 7 8 7 8 5 5 11 12 11 11 11 12 12 13 13 13 13 4 1 -0 -1 -1 2
13 14 14 14 14 14 13 14 14 14 15 14 15 16 14 15 14 14 14 14 14 12 11 13 12 13 14 15 14 13 14 13 12 13 13 13 13 13 10 8 7 1 0
13 14 14 14 14 14 15 14 14 14 14 14 13 16 15 15 14 15 14 15 15 14 14 14 14 13 14 13 13 13 13 13 12 12 12 13 13 13 11 10 10 9 6
13 14 14 13 14 15 15 15 15 15 15 15 14 14 15 15 15 15 15 15 15 14 15 14 14 14 15 14 14 14 14 13 14 13 12 14 13 14 13 14 14 12 11
12 13 12 11 12 14 13 14 14 14 15 15 14 14 13 14 14 15 15 14 15 15 15 14 14 14 14 14 14 14 14 14 14 14 14 14 14 14 14 14 14 14 13
11 13 12 12 13 14 13 15 13 13 15 14 14 14 14 14 15 14 14 15 15 15 15 16 15 15 14 14 14 13 14 15 15 15 16 15 15 15 14 15 15 15 15
10 12 12 13 14 14 14 14 13 14 14 14 15 14 14 14 15 14 15 16 15 15 15 15 15 14 15 14 14 14 14 16 15 16 16 15 15 15 16 16 16 16 16
10 11 12 14 14 14 15 14 14 14 14 15 15 15 14 14 14 15 15 15 15 14 15 15 16 15 15 14 15 16 16 14 15 14 15 15 15 14 15 14 15 15 15
11 11 13 14 15 15 15 14 14 11 14 15 15 15 14 14 15 14 14 15 15 15 15 16 15 15 14 15 15 15 15 15 15 15 14 13 14 14 12 12 13 13 14
10 12 12 13 14 15 14 14 15 15 14 14 15 15 15 15 14 15 14 16 15 16 15 15 16 15 14 14 15 15 15 15 15 13 13 13 14 13 13 12 11 12 12
12 12 13 13 13 14 14 15 16 15 15 14 15 15 12 13 14 15 15 16 15 15 15 14 15 15 15 15 15 15 14 14 11 13 13 13 14 12 12 12 13 13 13
13 14 13 13 14 15 15 14 15 15 14 14 14 13 14 14 15 15 15 16 15 14 15 15 15 16 15 15 15 15 15 15 14 11 10 13 13 14 12 14 13 12 14
14 14 14 15 15 15 15 14 15 16 15 15 15 15 15 14 15 16 17 17 15 14 15 15 15 15 15 15 14 14 14 14 14 13 13 13 14 12 11 13 13 13 14
13 14 14 15 15 15 13 14 15 16 15 15 15 15 14 15 15 16 16 15 14 14 16 16 16 16 15 13 13 15 15 15 15 16 15 12 13 12 12 13 13 14 14

GFSSE_850_dewp_279.txt.gz
Dewpoint
12 11 13 13 13 13 13 14 15 15 13 11 11 12 15 15 16 16 15 15 12 11 11 11 11 11 11 13 13 14 14 13 11 8 7 8 12 9 8 8 9 10 11
12 12 12 12 13 12 12 12 14 15 14 13 11 12 15 15 15 16 15 15 15 14 13 12 12 14 13 13 13 13 11 11 9 9 12 12 9 9 9 9 9 10 10
11 13 12 9 10 12 12 13 13 14 14 15 13 13 14 15 15 15 15 15 14 14 13 13 12 14 13 13 12 10 10 10 11 12 12 10 8 9 9 9 9 9 9
11 11 10 11 10 12 12 13 14 14 14 15 10 12 11 13 15 15 15 14 14 14 14 14 14 14 12 11 10 10 11 10 10 9 8 8 8 8 9 10 10 10 8
9 9 10 12 10 9 10 14 14 14 14 14 12 12 13 13 13 14 14 13 13 13 13 12 11 14 12 11 10 10 11 11 8 7 6 6 7 8 8 9 9 10 10
9 10 13 11 10 11 10 14 14 15 14 13 13 13 14 12 13 12 12 9 12 12 12 12 13 12 13 14 12 12 11 11 12 9 6 8 7 7 6 7 8 10 10
6 9 10 9 12 11 10 12 14 13 12 13 13 14 13 14 14 14 13 12 12 11 8 11 12 12 13 13 14 13 11 12 11 9 7 8 6 6 7 6 7 8 9
5 9 9 9 10 11 11 10 13 13 12 14 10 11 14 11 14 14 14 14 13 11 10 10 12 12 12 12 12 12 12 12 9 8 7 6 5 5 6 6 7 8 8
7 5 7 9 7 8 10 12 11 13 13 11 11 11 13 12 12 10 10 10 9 6 7 9 12 12 13 13 13 13 12 12 11 12 8 6 5 4 5 5 6 7 8
9 10 8 6 8 8 8 11 10 10 13 12 11 9 8 11 10 13 7 6 4 4 5 8 13 13 13 14 14 13 14 13 13 14 12 6 5 4 4 5 5 6 7
9 8 8 9 9 9 9 9 9 10 10 9 11 13 10 7 6 6 7 10 8 6 5 4 4 6 8 13 13 13 13 13 13 13 14 14 4 3 4 5 4 5 6
10 11 7 7 8 9 8 7 5 7 8 7 7 7 9 9 9 9 10 10 10 8 8 9 10 9 6 8 11 12 13 13 13 13 13 13 14 4 1 2 2 3 4
13 12 12 10 6 7 10 8 8 6 6 10 12 12 11 11 12 11 10 7 6 6 6 6 9 10 8 11 12 12 13 13 13 12 13 13 13 13 2 1 1 1 2
14 13 13 13 13 8 13 12 12 11 14 13 14 15 14 14 14 14 13 8 11 12 9 9 5 5 11 13 13 13 13 13 13 13 13 13 13 13 13 5 3 2 1
13 14 14 14 14 13 13 13 13 14 14 14 15 15 14 14 13 14 14 14 14 14 13 13 12 13 12 13 13 13 13 13 13 12 13 12 12 13 13 12 8 6 4
13 13 13 14 14 15 15 14 14 14 13 12 14 15 14 14 14 14 14 15 15 15 14 14 14 14 13 14 13 13 13 13 13 14 14 13 13 12 13 14 14 13 11
12 13 12 11 13 15 14 15 15 15 14 14 13 14 14 14 14 15 15 14 14 14 14 15 14 13 13 14 14 14 14 14 14 14 14 14 13 14 14 14 14 15 14
12 13 12 12 12 13 13 15 15 14 15 14 14 14 14 14 14 14 15 15 15 14 15 15 15 14 14 14 14 15 14 14 14 14 14 13 14 13 14 15 15 15 15
12 12 12 13 13 13 14 14 14 13 14 14 14 14 14 14 15 15 15 16 16 16 15 15 16 15 15 15 15 14 15 13 14 15 15 15 15 15 15 15 15 15 15
12 12 12 12 14 14 14 14 14 14 14 13 14 14 14 14 15 15 15 15 15 14 15 15 15 15 15 14 14 15 15 15 14 14 14 14 15 15 15 15 15 16 14
12 13 12 13 14 14 14 13 13 14 14 15 15 15 15 15 15 14 14 15 15 15 14 14 16 16 15 14 14 14 15 14 14 14 13 14 14 15 15 13 14 15 15
11 12 12 13 14 14 14 12 12 12 13 14 15 16 15 15 15 15 15 15 15 15 15 15 15 15 15 14 14 15 15 14 13 13 12 12 14 14 13 13 12 13 15
11 11 12 13 14 14 14 14 15 15 14 13 14 15 15 14 15 15 15 15 16 15 15 16 15 15 15 15 14 15 14 13 11 13 13 12 13 13 14 14 13 12 12
11 11 12 12 14 13 14 14 14 15 14 14 14 15 14 13 12 15 15 14 14 14 14 14 14 15 15 15 15 14 14 14 13 13 13 12 13 13 11 12 14 14 13
11 11 13 13 13 13 14 14 14 14 14 15 14 15 15 15 14 15 15 15 16 15 14 14 15 15 15 15 15 15 14 13 14 13 13 13 13 12 11 12 14 12 12
11 12 13 14 14 14 15 15 14 15 15 15 15 15 16 15 14 15 16 16 14 14 14 15 15 15 15 15 14 13 13 14 14 14 15 14 11 12 11 13 12 13 13

GFSSE_850_dewp_285.txt.gz
Dewpoint
12 13 13 13 13 14 14 14 15 14 13 14 15 16 16 15 16 15 15 12 11 12 12 12 12 12 14 14 14 13 11 9 8 10 10 10 8 9 9 10 11 13 11
12 13 13 13 12 13 15 15 12 12 13 15 15 15 15 16 15 15 14 12 11 12 12 11 11 13 14 14 13 10 9 9 14 13 10 8 8 9 9 9 10 11 11
12 14 13 13 13 13 14 15 14 14 14 15 15 15 15 16 15 15 12 11 11 11 12 12 11 14 14 11 9 10 13 15 12 8 9 15 14 10 9 9 8 9 11
10 12 13 13 13 13 13 15 14 13 13 14 15 16 15 15 16 14 12 8 11 11 12 13 13 13 10 13 14 14 11 8 8 7 11 15 14 9 10 9 9 9 10
10 9 12 13 14 14 14 16 14 12 12 13 15 16 15 15 15 15 14 12 13 13 13 14 13 12 9 8 8 7 7 6 6 7 7 8 12 8 9 11 11 10 11
9 13 13 10 14 14 14 15 14 12 12 11 13 10 11 12 12 12 13 14 14 14 14 13 13 8 9 9 7 7 9 6 6 8 8 7 7 7 8 9 9 9 12
9 14 12 11 14 15 14 14 14 13 12 12 11 9 10 8 8 8 8 10 11 12 13 13 9 9 10 11 11 11 10 8 7 7 8 7 7 7 7 8 9 9 8
10 14 14 12 13 14 14 14 13 13 13 13 13 13 13 12 14 14 9 9 12 12 12 12 13 12 12 12 11 10 10 9 8 8 7 6 6 7 8 8 8 8 9
10 11 14 14 15 13 14 12 11 12 12 13 13 13 13 13 13 14 13 12 11 10 11 11 11 12 12 12 11 12 12 11 8 7 5 4 5 6 7 8 8 10 9
9 9 11 13 14 15 15 12 11 12 13 13 13 12 12 12 12 13 13 13 13 10 11 11 11 11 12 13 13 12 12 12 13 13 14 11 4 3 5 7 7 9 12
7 8 9 8 9 11 10 12 11 11 12 12 13 13 13 12 11 11 11 8 7 8 11 12 12 12 13 12 12 12 13 13 12 13 13 13 13 12 3 4 5 6 8
9 8 8 9 9 8 10 12 11 11 12 11 10 11 11 10 9 8 7 6 12 6 8 11 12 11 10 10 12 11 12 12 12 13 12 13 13 13 12 3 3 4 6
9 8 8 9 9 8 8 7 10 10 9 11 12 10 9 9 9 10 10 10 9 8 10 8 9 9 7 7 9 11 12 12 13 13 13 13 13 13 13 13 4 3 3
10 9 9 7 8 8 7 6 5 8 7 6 7 9 8 9 10 10 8 8 8 8 9 8 9 10 9 10 11 12 12 12 13 13 13 12 13 13 13 13 13 6 3
13 12 12 9 6 7 9 7 6 5 7 11 12 10 12 13 13 13 11 8 12 12 7 11 8 6 8 10 12 13 13 13 13 14 13 13 12 12 13 13 14 13 8
13 13 13 13 11 9 10 9 10 10 12 12 14 15 14 14 13 13 13 14 14 15 15 14 13 11 8 11 13 13 13 13 13 13 12 12 13 13 12 13 13 14 14
13 13 13 13 14 13 14 13 13 14 13 13 14 15 14 14 14 14 14 14 14 15 14 14 14 13 13 13 13 13 13 14 13 13 13 13 14 14 14 12 13 13 14
12 13 13 13 13 14 14 15 15 15 14 14 13 13 13 14 14 14 14 14 14 15 14 14 14 14 14 14 14 13 14 14 14 13 13 13 14 15 14 13 14 14 14
11 12 13 12 13 14 14 14 15 15 15 15 15 14 14 14 14 14 14 14 15 15 15 14 14 14 15 14 14 14 15 15 14 14 13 14 14 14 14 14 15 14 14
11 11 13 12 13 14 15 15 15 15 14 14 15 14 14 14 14 14 15 15 15 15 14 15 15 15 15 15 15 16 15 14 14 14 14 14 13 14 14 14 15 14 15
11 11 11 12 13 13 14 14 14 14 14 14 13 13 14 15 15 15 15 15 15 15 15 15 14 14 14 14 15 15 14 14 14 14 14 14 13 12 15 14 15 15 15
10 11 11 12 13 14 14 14 14 13 14 14 14 15 15 15 15 14 12 14 14 15 15 15 15 15 15 15 15 16 15 16 14 13 12 12 12 13 14 14 14 13 13
9 9 11 11 11 13 14 14 13 12 12 13 14 14 15 15 14 14 14 14 15 15 15 15 15 15 14 14 14 15 16 15 13 11 12 12 13 13 13 13 12 13 13
8 8 10 11 11 12 14 15 14 14 14 14 14 14 13 13 14 12 14 15 14 14 14 14 14 14 13 14 14 15 15 14 15 14 12 12 10 12 13 12 11 13 13
8 8 9 10 11 13 13 14 15 14 14 14 14 14 13 14 14 14 14 14 14 15 14 14 13 14 14 15 15 15 15 15 14 16 14 14 14 13 13 12 11 12 12
8 8 9 9 11 11 13 14 15 14 14 15 15 15 14 15 15 14 15 15 15 13 8 8 14 14 15 15 15 15 15 15 16 15 15 14 13 13 12 11 11 11 12

GFSSE_850_dewp_291.txt.gz
Dewpoint
16 16 13 14 15 15 14 13 13 13 15 15 15 16 15 15 14 14 13 12 11 10 10 11 12 13 14 14 11 10 10 10 10 10 9 10 10 10 11 13 15 15 9
16 15 13 14 15 14 14 13 14 15 15 15 16 16 15 15 14 14 12 11 11 11 12 13 14 14 14 11 9 11 11 9 11 13 12 9 9 10 12 15 15 12 12
15 15 14 14 15 14 13 14 14 14 14 15 16 16 15 15 14 13 11 11 11 12 12 14 14 13 11 9 10 13 11 13 14 14 15 14 14 9 9 11 10 11 11
13 14 16 13 15 13 12 15 13 15 15 15 16 16 16 15 13 12 12 11 11 11 12 14 11 9 10 12 13 9 10 14 14 14 14 13 14 9 9 9 10 11 12
12 15 14 13 14 12 12 11 12 15 16 16 16 16 16 15 14 13 12 12 12 13 14 13 13 14 14 11 7 7 8 12 13 13 13 14 14 10 11 13 13 14 15
12 15 13 14 14 12 12 12 10 13 14 16 16 16 16 15 13 11 11 12 13 14 14 13 11 12 8 7 6 7 10 13 13 12 13 14 11 7 8 9 11 12 11
12 15 16 14 14 12 12 10 8 10 13 15 15 15 15 13 11 10 13 14 14 14 13 11 12 10 12 11 8 7 12 13 13 13 12 13 6 7 7 8 11 10 11
12 14 16 14 14 13 13 12 11 10 9 9 11 13 14 13 13 12 12 13 14 13 12 12 11 10 10 9 9 8 12 13 12 13 13 12 5 5 7 8 9 11 10
12 12 15 16 13 13 13 13 13 13 12 12 11 11 11 11 11 11 11 11 11 12 10 11 11 10 10 10 9 6 11 13 13 12 12 11 2 4 6 7 11 12 11
13 13 13 16 16 15 16 13 13 13 13 12 12 10 9 10 9 11 11 12 11 12 11 12 11 11 10 11 9 8 11 14 12 13 12 9 6 2 3 6 7 12 13
13 13 13 12 16 15 14 13 13 12 11 13 13 12 14 13 14 15 14 11 10 10 10 11 10 10 11 10 9 10 14 16 13 12 14 12 13 9 3 3 4 8 13
12 12 12 12 13 15 14 15 14 15 16 16 16 15 15 15 16 15 12 7 8 11 10 11 9 8 14 16 12 8 13 13 13 13 14 12 13 13 13 7 3 4 8
12 12 12 14 13 13 14 15 14 15 14 15 15 15 16 15 13 16 13 14 11 5 14 13 11 14 13 12 13 12 12 11 14 15 14 13 12 13 13 13 12 5 4
13 12 13 13 14 13 14 13 13 14 15 14 15 16 16 15 15 14 13 15 13 14 16 13 15 15 15 15 14 14 14 13 12 14 14 15 12 12 12 13 13 13 6
13 13 13 14 15 15 15 13 14 14 13 14 13 16 15 13 15 14 14 13 12 15 13 12 13 13 15 14 14 13 13 14 14 14 14 15 14 12 11 12 13 13 13
12 13 14 15 15 15 15 15 13 13 13 14 15 15 9 15 15 14 15 15 13 15 15 14 14 15 15 14 13 14 14 14 15 15 13 14 14 14 14 12 13 13 13
12 13 15 15 15 16 16 16 15 14 14 14 15 15 10 15 16 16 16 15 15 16 17 16 16 16 16 15 14 15 15 15 15 14 14 14 15 15 16 16 14 13 13
13 14 14 14 15 16 16 16 16 15 15 14 16 16 16 17 15 16 16 16 16 16 16 16 17 16 16 16 15 16 15 15 15 15 16 15 15 16 17 16 16 15 14
13 15 15 15 15 16 17 17 17 15 16 16 15 15 16 16 16 16 16 16 17 16 16 17 16 17 17 16 16 16 15 15 15 15 16 16 16 16 17 17 17 16 15
13 15 15 15 16 16 17 17 16 17 16 16 16 16 16 16 17 17 17 16 17 17 17 16 17 17 17 17 16 16 16 16 15 16 16 16 16 16 16 17 17 17 16
13 14 15 16 17 17 16 16 16 16 16 16 16 16 17 17 16 17 17 17 17 17 17 18 17 16 17 16 12 15 15 16 15 16 15 16 16 16 16 17 16 17 17
13 14 15 16 17 16 16 16 15 16 15 15 15 17 17 17 17 18 16 17 16 17 17 17 17 16 17 17 17 17 15 15 16 16 15 15 16 16 16 17 16 16 17
12 14 15 16 15 15 17 16 17 16 16 16 16 17 17 17 18 18 17 15 13 14 17 17 17 17 17 17 17 17 16 15 16 15 15 15 15 14 14 15 16 16 16
11 13 14 16 12 17 16 16 16 16 15 15 15 16 17 18 18 18 17 17 15 15 16 16 17 15 16 16 17 16 17 17 15 15 15 15 15 14 14 14 14 15 17
10 12 14 16 16 15 16 16 17 15 15 15 15 16 14 17 14 17 18 18 17 17 17 16 17 17 17 16 14 17 17 16 17 15 15 14 15 14 14 14 13 14 16
10 11 13 16 16 12 16 13 17 17 16 16 16 17 16 16 17 16 17 17 17 17 17 16 16 15 16 16 17 17 16 16 15 15 15 14 13 12 12 10 11 13 14